N805AB KASE-KEGE

Flight info

Callsign N805AB
Flight time 0h 10m
Altitude VFR
Route /NNE FF/
Aircraft BE9L/L-VGD/C

Departure

Time 2026-04-22 00:54
Airport Aspen-Pitkin County Airport (Sardy Field) (KASE)

Arrival

Time 2026-04-22 01:04
Airport Eagle County Regional Airport (KEGE)
Time Latitude Longitude Altitude Speed Heading
2026-04-22 00:53 39.34432 -106.87479 11405 ft 200 kts 353°
2026-04-22 00:54 39.35884 -106.87656 11192 ft 223 kts 351°
2026-04-22 00:54 39.36926 -106.87832 11137 ft 236 kts 351°
2026-04-22 00:54 39.39220 -106.88184 10969 ft 254 kts 353°
2026-04-22 00:54 39.40978 -106.88345 11102 ft 252 kts 355°
2026-04-22 00:55 39.42693 -106.88436 11492 ft 239 kts 358°
2026-04-22 00:55 39.44350 -106.88415 11673 ft 243 kts 359°
2026-04-22 00:55 39.47891 -106.88175 11333 ft 267 kts
2026-04-22 00:56 39.49073 -106.88004 11496 ft 244 kts
2026-04-22 00:56 39.50726 -106.87555 11223 ft 248 kts 18°
2026-04-22 00:56 39.52363 -106.87171 11184 ft 235 kts 352°
2026-04-22 00:56 39.53815 -106.88006 10975 ft 230 kts 319°
2026-04-22 00:57 39.55071 -106.89281 10848 ft 229 kts 320°
2026-04-22 00:57 39.56781 -106.90940 10414 ft 238 kts 323°
2026-04-22 00:57 39.58184 -106.92138 9933 ft 241 kts 325°
2026-04-22 00:57 39.59655 -106.93196 9312 ft 243 kts 329°
2026-04-22 00:58 39.60640 -106.93907 9029 ft 235 kts 325°
2026-04-22 00:58 39.61701 -106.95377 8669 ft 223 kts 297°
2026-04-22 00:58 39.62112 -106.97233 8458 ft 206 kts 279°
2026-04-22 00:58 39.62117 -106.98975 8612 ft 191 kts 248°
2026-04-22 00:59 39.61074 -107.00122 8657 ft 222 kts 197°
2026-04-22 00:59 39.59436 -106.99843 8385 ft 259 kts 156°
2026-04-22 00:59 39.58382 -106.97964 8534 ft 270 kts 101°
2026-04-22 00:59 39.58643 -106.95595 8826 ft 265 kts 77°
2026-04-22 01:00 39.59119 -106.93306 9005 ft 267 kts 76°
2026-04-22 01:00 39.59607 -106.90940 8859 ft 281 kts 77°
2026-04-22 01:00 39.60061 -106.88524 8711 ft 266 kts 79°
2026-04-22 01:00 39.60473 -106.86270 8603 ft 251 kts 78°
2026-04-22 01:01 39.60847 -106.84106 8536 ft 241 kts 78°
2026-04-22 01:01 39.61187 -106.81991 8362 ft 237 kts 78°
2026-04-22 01:01 39.61592 -106.79989 8402 ft 223 kts 57°
2026-04-22 01:01 39.62816 -106.79065 8298 ft 208 kts 352°
2026-04-22 01:02 39.63827 -106.80170 8104 ft 197 kts 296°
2026-04-22 01:02 39.64443 -106.81748 8016 ft 192 kts 288°
2026-04-22 01:02 39.64841 -106.83377 7745 ft 183 kts 283°
2026-04-22 01:02 39.65003 -106.84933 7537 ft 167 kts 266°
2026-04-22 01:03 39.64848 -106.86398 7179 ft 161 kts 259°
2026-04-22 01:03 39.64692 -106.87787 7006 ft 151 kts 263°
2026-04-22 01:03 39.64548 -106.89116 6747 ft 145 kts 265°
2026-04-22 01:03 39.64414 -106.90361 6562 ft 134 kts 263°
2026-04-22 01:04 39.64295 -106.91437 6517 ft 95 kts 261°
2026-04-22 01:04 39.64217 -106.92133 6494 ft 52 kts 261°
2026-04-22 01:04 39.64101 -106.92250 6492 ft 19 kts 120°
2026-04-22 01:04 39.64117 -106.92059 6498 ft 24 kts 81°
2026-04-22 01:05 39.64140 -106.91849 6504 ft 23 kts 81°
2026-04-22 01:05 39.64165 -106.91629 6510 ft 26 kts 82°
2026-04-22 01:05 39.64188 -106.91405 6517 ft 23 kts 82°
2026-04-22 01:05 39.64209 -106.91228 6522 ft 22 kts 82°
2026-04-22 01:06 39.64232 -106.91013 6527 ft 26 kts 82°
2026-04-22 01:06 39.64257 -106.90762 6534 ft 30 kts 82°
2026-04-22 01:06 39.64290 -106.90484 6541 ft 32 kts 78°
2026-04-22 01:06 39.64316 -106.90188 6549 ft 34 kts 79°
2026-04-22 01:07 39.64351 -106.90014 6554 ft 0 kts
2026-04-22 01:09 39.64352 -106.90014 6554 ft 0 kts
2026-04-22 01:09 39.64354 -106.90013 6554 ft 0 kts
2026-04-22 01:11 39.64395 -106.90016 6555 ft 14 kts 350°
2026-04-22 01:11 39.64440 -106.90137 6551 ft 32 kts 260°
2026-04-22 01:11 39.64359 -106.90860 6533 ft 119 kts 262°
2026-04-22 01:12 39.64214 -106.92149 6609 ft 165 kts 264°
2026-04-22 01:12 39.64028 -106.93767 6778 ft 191 kts 260°
2026-04-22 01:12 39.63444 -106.95311 7309 ft 198 kts 228°
2026-04-22 01:12 39.62235 -106.96167 7606 ft 213 kts 191°
2026-04-22 01:13 39.60763 -106.95867 8040 ft 224 kts 154°
2026-04-22 01:13 39.59705 -106.94353 8398 ft 233 kts 116°
2026-04-22 01:13 39.59602 -106.92246 8565 ft 247 kts 83°
2026-04-22 01:13 39.59907 -106.90044 8764 ft 243 kts 80°
2026-04-22 01:14 39.60222 -106.87910 8865 ft 240 kts 80°
2026-04-22 01:14 39.60554 -106.85771 8844 ft 247 kts 80°
2026-04-22 01:14 39.60894 -106.83591 8890 ft 237 kts 74°
2026-04-22 01:14 39.61777 -106.82031 8825 ft 206 kts 28°
2026-04-22 01:15 39.63024 -106.81622 8738 ft 176 kts 350°
2026-04-22 01:15 39.64182 -106.81956 8498 ft 166 kts 336°
2026-04-22 01:15 39.64965 -106.82928 8216 ft 154 kts 292°
2026-04-22 01:15 39.65101 -106.84273 7784 ft 153 kts 262°
2026-04-22 01:16 39.64917 -106.85611 7403 ft 148 kts 261°
2026-04-22 01:16 39.64796 -106.86983 7148 ft 165 kts 264°
2026-04-22 01:16 39.64623 -106.88489 6929 ft 160 kts 264°
2026-04-22 01:16 39.64481 -106.89762 6664 ft 129 kts 263°
2026-04-22 01:17 39.64365 -106.90806 6535 ft 107 kts 264°
2026-04-22 01:17 39.64259 -106.91764 6509 ft 131 kts 263°
2026-04-22 01:17 39.64107 -106.93120 6658 ft 166 kts 263°
2026-04-22 01:17 39.63926 -106.94630 7288 ft 171 kts 263°
2026-04-22 01:18 39.63755 -106.96185 7952 ft 176 kts 260°
2026-04-22 01:18 39.63126 -106.97444 8533 ft 172 kts 212°
2026-04-22 01:18 39.61950 -106.97767 8920 ft 184 kts 178°
2026-04-22 01:18 39.60607 -106.97434 9018 ft 213 kts 173°
2026-04-22 01:19 39.59110 -106.97278 9194 ft 224 kts 187°
2026-04-22 01:19 39.57566 -106.97560 9586 ft 223 kts 192°
2026-04-22 01:19 39.56031 -106.97873 10031 ft 224 kts 191°
2026-04-22 01:19 39.54472 -106.98157 10332 ft 228 kts 191°
2026-04-22 01:20 39.52883 -106.98444 10486 ft 233 kts 194°
2026-04-22 01:20 39.51322 -106.98923 10732 ft 227 kts 196°